Wind_Speed
29 30 25 25 24 24 26 22 26 21 21 21 24 20 16 14 13 11 14 12 10 11 9 12 15 18 18 18 18 19 20 20 21 23 24 26 28 29 30 31 33 36 37 37
28 20 22 26 23 24 28 24 24 19 17 18 10 9 13 16 15 13 14 16 12 13 11 14 18 19 20 20 21 21 22 23 24 25 24 26 29 30 31 34 36 37 39 42
26 19 29 21 20 25 26 28 25 26 25 17 16 12 17 15 12 17 11 16 16 15 12 12 16 19 21 21 21 21 23 23 24 24 26 26 27 30 33 34 39 43 43 41
27 22 25 23 21 25 26 27 26 28 29 23 22 22 24 21 16 13 15 17 14 15 12 6 10 15 18 20 21 21 22 23 25 25 26 26 29 31 32 38 43 41 40 41
21 22 24 25 20 24 22 24 26 27 27 29 22 29 28 24 20 16 16 19 16 16 5 12 12 12 14 17 20 22 23 24 26 26 27 30 31 30 34 41 40 39 41 43
24 22 22 20 20 21 21 24 24 24 27 31 23 28 28 26 24 20 17 21 19 14 14 16 15 15 18 19 21 23 25 26 27 29 30 31 33 35 41 38 38 40 41 41
22 23 22 21 18 19 22 22 26 30 33 34 28 29 27 22 19 18 17 21 19 14 16 15 16 15 16 18 20 23 25 25 26 28 29 32 36 41 38 37 40 39 40 41
28 26 22 22 22 23 24 29 26 27 29 25 25 33 31 29 27 18 15 16 17 15 18 20 18 18 19 22 24 25 26 27 27 28 33 40 41 36 37 39 40 40 41 41
28 27 23 23 24 25 22 24 24 29 32 23 29 29 29 23 22 21 20 17 19 19 20 19 19 23 24 24 26 27 28 28 26 31 36 35 33 37 37 38 39 39 39 39
29 29 27 26 26 25 24 23 25 26 27 25 21 20 23 22 21 22 23 20 22 23 23 23 25 27 27 26 25 24 23 24 29 34 32 33 33 34 36 36 35 36 38 39
29 31 30 28 26 23 23 21 23 24 27 25 24 24 15 18 18 20 22 24 25 26 29 30 24 23 23 24 23 24 28 32 35 30 29 30 31 33 32 31 32 35 38 39
28 31 31 28 26 25 23 22 21 22 19 23 23 22 15 15 18 21 23 25 27 27 29 27 26 25 25 24 30 31 27 24 23 26 27 29 30 29 27 29 32 34 36 38
30 36 34 33 30 23 19 20 20 23 21 22 25 18 17 21 21 23 26 28 28 29 32 30 26 28 25 26 21 17 18 20 22 24 26 27 26 25 26 29 31 34 37 39
37 35 35 34 22 26 26 24 24 24 20 21 21 19 22 24 24 27 29 26 23 21 21 22 21 23 25 22 19 18 19 20 22 23 25 24 23 25 27 29 32 35 38 41
39 39 35 33 30 31 28 27 25 25 21 24 18 20 22 27 28 24 18 15 15 16 18 21 22 22 18 15 16 17 18 19 21 23 22 22 23 24 26 29 33 36 38 42
39 40 36 34 32 33 30 31 27 24 23 22 24 19 23 21 19 13 12 13 16 18 21 19 16 13 14 14 14 16 17 19 21 20 21 22 23 24 27 30 33 37 39 42
41 41 37 34 31 35 39 27 25 22 24 23 19 17 18 13 15 15 15 14 14 14 15 13 13 13 13 12 14 15 17 19 19 21 21 21 23 25 28 31 34 37 40 44
45 42 39 36 33 42 36 23 26 26 24 24 19 18 19 16 17 16 15 13 13 12 12 12 13 13 13 13 15 17 18 18 20 22 21 21 23 26 29 32 35 38 41 45
48 46 43 42 39 41 38 32 24 28 26 28 21 18 18 18 19 16 18 17 13 14 12 12 12 12 13 15 16 18 18 19 21 22 23 22 24 26 30 33 37 40 43 46
56 52 48 46 44 44 38 32 30 30 33 23 26 22 20 20 17 19 19 16 15 14 12 12 13 13 14 15 17 19 18 20 22 23 25 25 27 29 32 35 39 42 44 47
59 59 52 49 47 45 40 33 34 36 19 30 24 25 22 20 16 17 18 17 16 15 14 14 14 14 15 17 19 20 19 21 23 24 25 27 28 31 34 38 40 43 47 50
62 61 56 52 51 47 44 36 38 29 26 34 29 26 22 20 17 17 18 18 17 17 16 16 15 15 17 19 20 21 21 23 24 26 28 28 30 32 35 39 43 46 49 52
61 64 63 56 50 48 42 36 35 35 30 34 32 29 24 23 21 19 18 17 17 18 18 17 16 16 18 20 21 22 23 25 26 27 30 31 33 34 37 41 44 48 52 55
59 57 56 54 51 50 44 37 39 39 34 35 35 33 28 25 23 22 20 18 18 19 19 19 18 18 20 21 22 23 25 27 29 30 31 33 35 38 40 42 45 49 53 56
68 66 59 55 44 49 43 35 42 44 35 34 35 34 28 27 26 24 21 20 19 19 20 20 20 20 21 22 23 25 26 29 31 33 33 36 38 41 42 44 47 50 54 58
46 52 60 55 54 52 47 39 43 43 36 34 36 35 30 28 27 26 24 23 22 21 21 22 22 21 21 23 24 26 28 30 32 35 36 38 40 43 44 46 48 52 56 59
Wind_Direction
246 252 257 255 249 243 244 241 250 240 244 248 257 259 264 287 293 286 280 278 258 237 227 251 262 266 268 277 285 290 295 299 299 303 309 309 308 310 311 310 312 312 313 315
249 255 255 254 258 254 253 248 250 246 242 243 230 232 265 274 294 301 290 284 268 243 233 249 258 264 277 281 284 291 296 297 298 300 305 306 308 310 311 312 313 313 314 314
253 248 254 262 261 260 256 262 260 256 252 256 251 264 276 279 271 270 283 288 284 249 233 265 274 275 279 283 287 289 293 296 298 301 304 306 308 310 313 314 314 312 312 311
247 243 255 258 260 260 263 259 258 263 268 262 259 263 274 276 287 258 287 284 290 262 245 286 276 272 276 281 285 290 293 296 299 301 303 305 308 310 311 313 311 313 314 314
246 244 250 258 258 256 263 259 257 263 272 274 265 265 261 273 275 284 273 284 267 262 252 276 285 273 279 285 290 294 297 298 300 302 305 308 309 308 308 313 313 314 314 315
243 245 246 250 250 253 254 252 257 262 262 267 269 270 271 275 280 280 265 266 272 268 284 287 290 291 288 287 287 290 295 299 303 305 308 308 306 308 313 311 312 314 313 313
247 248 247 245 239 243 249 248 256 256 260 267 268 269 273 269 274 273 267 265 268 280 288 304 306 306 303 297 294 293 297 304 307 307 306 304 307 310 310 313 314 313 314 317
247 244 251 249 242 241 244 246 252 263 263 266 262 264 270 269 275 273 264 263 269 278 298 301 304 302 298 298 297 300 305 308 306 304 302 303 307 310 313 313 313 318 318 317
248 249 246 246 246 247 249 249 253 256 261 272 257 266 273 268 277 272 271 264 256 274 282 289 295 294 293 294 291 294 294 295 296 302 307 307 312 311 311 315 318 319 320 322
246 247 242 245 246 248 251 254 253 257 263 266 268 278 267 270 268 275 284 277 278 281 274 277 285 284 283 287 291 291 290 291 299 306 306 309 307 311 316 317 322 324 326 325
242 244 245 245 249 250 254 254 255 254 257 264 268 267 277 261 262 263 267 267 266 269 276 279 277 286 287 284 288 290 289 292 298 301 303 306 312 314 316 322 325 327 326 325
245 249 248 249 245 245 247 251 253 256 260 262 259 255 260 260 262 260 263 266 266 268 271 275 280 278 281 282 294 297 296 294 294 301 307 313 314 316 321 325 327 327 327 326
240 245 248 247 246 249 255 254 250 250 248 254 260 268 259 259 258 265 270 273 273 267 264 265 270 281 286 294 296 303 303 303 306 312 311 313 318 322 325 327 331 333 332 327
243 244 246 251 250 241 245 250 254 255 252 260 263 262 266 266 271 274 275 280 281 285 274 262 276 281 290 295 293 298 304 311 311 310 314 319 322 325 330 333 335 333 330 327
242 245 245 248 248 248 248 249 252 256 254 254 255 265 272 280 279 277 272 268 267 270 269 269 274 283 285 281 290 300 307 307 310 315 318 318 323 328 332 334 333 332 329 326
240 246 245 245 248 252 250 251 254 258 259 257 257 266 271 278 277 257 243 245 249 257 262 269 274 269 269 278 292 299 303 309 316 318 316 322 326 331 333 332 332 330 328 326
238 242 244 242 245 248 246 251 263 261 256 259 263 257 267 272 257 252 247 248 255 258 258 260 260 264 272 286 296 302 310 313 317 318 320 325 330 331 331 330 332 333 328 326
240 242 243 240 240 246 249 248 259 260 259 265 263 260 268 265 260 262 263 252 245 242 244 250 257 269 283 295 302 313 316 315 318 317 321 327 328 327 330 332 332 330 328 327
239 242 244 245 238 246 249 246 259 257 251 256 262 261 253 244 258 267 257 252 242 237 238 248 263 277 288 295 303 310 309 313 316 317 321 322 324 330 329 331 330 329 327 327
236 239 240 242 241 241 245 250 250 249 253 266 256 248 244 236 242 248 252 250 246 244 249 258 271 279 285 293 300 303 301 311 314 319 323 322 326 327 330 331 329 327 326 326
233 239 238 240 242 239 242 244 252 251 266 264 253 241 242 236 233 242 251 246 248 246 251 260 271 282 289 294 296 299 300 308 315 320 323 324 325 328 330 328 327 326 327 327
234 236 240 240 241 241 244 239 242 252 246 250 259 252 240 240 238 237 244 245 247 246 253 262 273 285 293 292 295 301 302 307 314 320 323 324 324 326 326 327 328 328 329 329
232 235 238 239 240 251 252 242 244 244 243 249 252 250 243 243 237 240 242 245 253 252 254 262 273 283 290 291 295 303 304 308 313 318 322 322 322 324 326 328 328 329 330 330
226 233 239 241 239 243 242 235 233 241 237 242 248 250 246 244 244 245 245 244 249 253 258 264 272 280 288 290 295 302 306 311 315 317 321 322 323 325 326 328 330 331 330 330
225 229 231 233 234 240 237 236 230 235 236 241 243 246 245 244 242 244 245 248 250 255 259 263 268 275 285 291 294 300 306 313 318 317 320 321 323 325 327 329 331 332 332 331
214 223 227 227 222 232 238 230 231 231 233 236 240 243 244 243 244 245 247 249 254 257 259 263 266 272 282 289 293 299 304 309 316 318 320 320 323 325 328 328 331 333 332 331
Height
5836 5837 5841 5840 5839 5841 5840 5842 5840 5842 5843 5842 5843 5845 5845 5845 5845 5845 5845 5845 5844 5845 5844 5843 5843 5843 5843 5843 5843 5843 5842 5842 5841 5839 5838 5835 5832 5829 5826 5822 5818 5814 5809 5805
5831 5835 5835 5834 5837 5837 5837 5838 5838 5839 5839 5840 5841 5842 5841 5844 5843 5843 5842 5842 5841 5842 5842 5840 5839 5839 5839 5839 5839 5839 5838 5837 5836 5835 5834 5831 5826 5822 5820 5815 5811 5808 5803 5798
5825 5831 5828 5832 5832 5832 5833 5834 5836 5836 5836 5837 5838 5839 5837 5839 5841 5841 5840 5839 5839 5838 5839 5838 5837 5836 5836 5835 5835 5834 5834 5833 5831 5829 5828 5825 5821 5817 5813 5809 5804 5799 5795 5790
5820 5825 5825 5828 5829 5828 5830 5831 5831 5830 5830 5834 5833 5834 5832 5834 5835 5837 5837 5835 5837 5836 5835 5836 5835 5833 5832 5831 5830 5829 5828 5827 5826 5824 5822 5819 5816 5812 5807 5802 5797 5792 5787 5782
5819 5820 5821 5822 5823 5824 5825 5826 5826 5826 5825 5824 5828 5826 5828 5828 5830 5831 5832 5831 5833 5832 5832 5832 5831 5829 5828 5827 5825 5823 5822 5822 5820 5818 5816 5813 5810 5806 5802 5796 5790 5785 5780 5774
5813 5815 5816 5818 5819 5820 5820 5821 5821 5821 5820 5818 5823 5821 5823 5824 5825 5826 5828 5827 5827 5827 5827 5828 5827 5825 5824 5822 5821 5819 5817 5816 5814 5811 5809 5806 5802 5799 5795 5789 5784 5779 5774 5768
5810 5810 5812 5813 5814 5815 5816 5816 5816 5815 5814 5816 5817 5815 5817 5818 5819 5822 5824 5823 5822 5822 5823 5822 5821 5820 5819 5817 5815 5814 5813 5810 5808 5805 5803 5799 5795 5792 5787 5782 5778 5772 5766 5761
5802 5805 5807 5808 5810 5810 5810 5811 5811 5810 5810 5813 5812 5809 5810 5813 5815 5816 5818 5818 5817 5817 5816 5815 5815 5813 5812 5811 5809 5808 5806 5804 5802 5799 5795 5791 5787 5783 5779 5774 5769 5763 5758 5753
5796 5798 5801 5802 5802 5805 5806 5807 5807 5805 5805 5805 5806 5806 5806 5808 5810 5810 5811 5812 5812 5811 5811 5810 5810 5808 5807 5806 5804 5803 5801 5799 5797 5793 5789 5784 5779 5776 5771 5766 5762 5756 5751 5745
5790 5791 5794 5795 5796 5798 5799 5801 5800 5801 5800 5801 5801 5802 5802 5803 5804 5805 5804 5805 5805 5805 5805 5805 5805 5804 5802 5801 5799 5797 5794 5792 5790 5787 5783 5779 5775 5770 5765 5760 5754 5749 5743 5738
5782 5784 5788 5789 5791 5793 5794 5794 5794 5795 5795 5795 5796 5797 5800 5800 5800 5799 5799 5799 5799 5799 5799 5798 5798 5797 5795 5794 5793 5791 5788 5785 5783 5780 5777 5774 5769 5764 5759 5754 5749 5743 5737 5731
5777 5777 5780 5783 5786 5787 5788 5788 5789 5789 5792 5790 5790 5792 5796 5796 5795 5793 5793 5793 5793 5793 5792 5791 5791 5791 5789 5788 5786 5783 5779 5778 5776 5774 5771 5767 5763 5758 5754 5749 5744 5738 5731 5725
5770 5769 5772 5775 5779 5783 5784 5783 5783 5783 5785 5785 5785 5790 5790 5789 5789 5788 5786 5785 5785 5784 5784 5784 5784 5782 5782 5781 5778 5776 5774 5772 5771 5768 5764 5760 5756 5751 5747 5743 5737 5731 5724 5718
5761 5761 5765 5770 5776 5775 5776 5777 5777 5777 5780 5781 5780 5782 5782 5781 5782 5781 5778 5779 5777 5776 5775 5776 5776 5775 5775 5773 5772 5771 5769 5767 5764 5761 5757 5753 5749 5745 5740 5735 5729 5723 5717 5711
5753 5754 5758 5763 5766 5768 5771 5772 5772 5772 5774 5773 5776 5775 5776 5774 5773 5774 5773 5772 5771 5770 5770 5769 5770 5770 5770 5769 5768 5766 5764 5761 5758 5755 5751 5748 5744 5739 5734 5729 5723 5717 5711 5704
5745 5747 5751 5755 5758 5760 5763 5765 5767 5768 5768 5768 5768 5770 5768 5768 5767 5767 5766 5766 5764 5763 5764 5764 5764 5765 5765 5765 5763 5762 5759 5756 5753 5749 5746 5743 5738 5733 5728 5722 5717 5711 5705 5698
5735 5739 5744 5748 5751 5752 5752 5760 5762 5762 5762 5762 5764 5765 5763 5763 5762 5761 5760 5760 5759 5759 5759 5760 5760 5761 5760 5760 5759 5757 5754 5751 5748 5745 5741 5737 5732 5728 5723 5717 5711 5705 5698 5691
5725 5730 5735 5740 5743 5740 5748 5756 5756 5756 5757 5757 5757 5759 5758 5757 5757 5757 5756 5756 5755 5756 5756 5757 5756 5756 5755 5754 5753 5751 5749 5746 5744 5740 5736 5731 5727 5723 5717 5711 5705 5699 5692 5684
5716 5720 5725 5729 5734 5735 5742 5748 5750 5751 5754 5751 5753 5754 5753 5752 5752 5753 5753 5752 5752 5752 5753 5753 5752 5751 5751 5750 5748 5746 5744 5742 5740 5736 5732 5727 5722 5717 5711 5705 5699 5691 5684 5676
5705 5710 5715 5719 5723 5724 5734 5741 5741 5742 5744 5750 5747 5747 5747 5748 5749 5749 5749 5749 5749 5748 5748 5748 5748 5747 5747 5746 5744 5742 5740 5738 5735 5731 5727 5722 5716 5711 5704 5698 5691 5684 5676 5668
5693 5698 5704 5708 5712 5717 5723 5733 5734 5733 5747 5737 5741 5741 5742 5743 5744 5744 5744 5745 5745 5744 5744 5744 5744 5743 5742 5741 5739 5737 5735 5732 5729 5725 5720 5715 5710 5703 5697 5691 5684 5676 5668 5659
5682 5689 5694 5700 5703 5709 5714 5722 5726 5729 5733 5730 5732 5735 5737 5737 5737 5738 5739 5740 5740 5739 5739 5739 5738 5738 5737 5736 5734 5732 5729 5726 5723 5719 5714 5709 5703 5697 5691 5684 5676 5668 5659 5649
5670 5676 5683 5690 5695 5699 5706 5714 5716 5719 5724 5724 5726 5728 5731 5731 5732 5732 5733 5733 5734 5734 5734 5734 5733 5732 5731 5730 5728 5726 5724 5720 5717 5713 5708 5702 5697 5691 5683 5676 5668 5659 5650 5640
5656 5665 5670 5678 5687 5688 5695 5704 5707 5708 5713 5715 5718 5720 5723 5724 5726 5726 5726 5726 5727 5727 5727 5727 5727 5726 5726 5724 5722 5720 5718 5715 5711 5706 5701 5696 5690 5684 5676 5668 5659 5650 5641 5631
5642 5650 5658 5665 5673 5678 5687 5694 5697 5700 5705 5708 5710 5713 5716 5718 5719 5720 5721 5720 5720 5720 5721 5721 5721 5720 5720 5718 5716 5714 5711 5708 5705 5700 5695 5689 5683 5677 5669 5660 5651 5641 5632 5622
5630 5638 5645 5653 5662 5668 5674 5683 5685 5692 5697 5700 5701 5705 5709 5711 5712 5713 5715 5715 5714 5714 5714 5715 5715 5714 5713 5712 5709 5707 5704 5701 5697 5693 5687 5682 5676 5668 5661 5652 5643 5633 5624 5614